Weather reports worldwide

Advertisment
St.Peter-Ording, Germany (10028): temperature & dewpoint: 29.06.2020 15:00:00 - 05.07.2020 15:00:00 (CEST)St.Peter-Ording, Germany (10028): temperature 5cm & temperature -5cm: 29.06.2020 15:00:00 - 05.07.2020 15:00:00 (CEST)St.Peter-Ording, Germany (10028): temperature -20cm & temperature -100cm: 29.06.2020 15:00:00 - 05.07.2020 15:00:00 (CEST)St.Peter-Ording, Germany (10028): wind speed & gusts: 29.06.2020 15:00:00 - 05.07.2020 15:00:00 (CEST)St.Peter-Ording, Germany (10028): wind direction: 29.06.2020 15:00:00 - 05.07.2020 15:00:00 (CEST)St.Peter-Ording, Germany (10028): reduced air pressure: 29.06.2020 15:00:00 - 05.07.2020 15:00:00 (CEST)St.Peter-Ording, Germany (10028): visibility: 29.06.2020 15:00:00 - 05.07.2020 15:00:00 (CEST)St.Peter-Ording, Germany (10028): sunshine duration: 29.06.2020 15:00:00 - 05.07.2020 15:00:00 (CEST)St.Peter-Ording, Germany (10028): precipitation: 29.06.2020 15:00:00 - 05.07.2020 15:00:00 (CEST)
Date & Time tt [°C] td [°C] tt 5cm [°C] tt -5cm [°C] tt -20cm [°C] tt -100cm [°C] ff [km/h] ff [kn] fx [km/h] fx [kn] dd ppp [hPa] vv [km] sd [min] rr [mm]
05.07.2020 15:00:00 18,4 15,1 20,3 22,5 17,9 16,2 51 28 77 42 WSW 1004,5 14 23 0,3
05.07.2020 14:00:00 18,5 15,6 20,2 22,5 17,6 16,2 49 27 77 42 WSW 1003,9 13 20 0,2
05.07.2020 13:00:00 17,9 16,0 17,6 20,3 17,3 16,2 53 28 73 40 WSW 1003,5 8 4 0,0
05.07.2020 12:00:00 17,3 16,7 17,6 18,6 17,1 16,2 55 30 73 40 SW 1003,1 4,8 0 0,1
05.07.2020 11:00:00 16,9 16,3 16,9 17,8 17,0 16,2 56 31 77 42 SW 1002,9 4,2 0 0,1
05.07.2020 10:00:00 16,8 16,1 16,6 17,2 17,0 16,3 50 27 81 44 SW 1002,7 4,7 0 0,4
05.07.2020 09:00:00 17,0 16,1 16,7 17,2 17,0 16,3 53 29 71 39 SW 1002,5 10 0 0,3
05.07.2020 08:00:00 17,1 15,8 17,0 17,0 17,0 16,3 46 25 73 40 SW 1002,7 19 0 0,0
05.07.2020 07:00:00 17,0 16,4 16,8 17,0 17,0 16,3 39 21 54 29 SW 1003,0 9 0 0,1
05.07.2020 06:00:00 17,0 16,6 16,8 16,9 17,0 16,3 40 22 54 29 SW 1003,9 3,2 0 0,0
05.07.2020 05:00:00 17,2 16,7 16,9 16,9 17,0 16,3 35 19 50 27 SW 1004,2 6 0 0,0
05.07.2020 04:00:00 17,2 16,7 16,9 16,9 17,0 16,3 34 18 48 26 SW 1004,7 6 0 0,0
05.07.2020 03:00:00 17,1 16,7 16,9 16,9 17,0 16,3 34 18 48 26 SW 1005,4 3,9 0 0,0
05.07.2020 02:00:00 17,1 16,7 16,9 16,9 17,1 16,4 34 18 47 25 SW 1006,2 14 0 0,4
05.07.2020 01:00:00 17,1 16,9 16,9 16,9 17,1 16,4 30 16 46 25 SW 1006,8 2,1 0 0,7
05.07.2020 00:00:00 17,1 16,7 16,9 16,9 17,1 16,4 34 19 48 26 SW 1007,2 5 0 0,5
04.07.2020 23:00:00 17,1 16,8 16,9 16,9 17,2 16,4 32 17 55 30 SW 1007,5 3,9 0 2,6
04.07.2020 22:00:00 16,9 16,5 16,7 16,9 17,2 16,4 42 23 59 32 WSW 1007,8 5 0 0,5
04.07.2020 21:00:00 16,9 16,4 16,7 17,1 17,2 16,4 47 25 63 34 WSW 1007,8 13 0 0,1
04.07.2020 20:00:00 16,9 16,4 16,7 17,3 17,2 16,4 45 24 61 33 WSW 1008,0 2,8 0 0,0
04.07.2020 19:00:00 16,9 16,3 16,8 17,3 17,2 16,4 44 24 66 36 WSW 1008,1 7 0 0,0
04.07.2020 18:00:00 16,8 16,4 16,8 17,4 17,1 16,5 49 27 63 34 WSW 1008,2 6 0 1,0
04.07.2020 17:00:00 16,9 16,4 17,0 17,5 17,1 16,5 43 23 66 36 WSW 1008,2 4,7 0 0,5
04.07.2020 16:00:00 16,6 16,2 16,7 17,2 17,0 16,5 41 22 65 35 SW 1008,2 3,6 0 1,3
04.07.2020 15:00:00 16,4 15,8 16,3 17,0 16,9 16,5 41 22 66 35 SW 1008,2 2,5 0 0,9
04.07.2020 14:00:00 16,2 15,3 16,0 17,0 16,9 16,5 43 23 62 33 SW 1008,2 4,2 0 0,4
04.07.2020 13:00:00 16,4 14,3 16,8 16,9 16,9 16,5 45 25 63 34 SW 1008,4 19 0 0,0
04.07.2020 12:00:00 15,8 14,6 15,5 16,5 16,8 16,5 44 24 63 34 SW 1008,6 11 0 0,4
04.07.2020 11:00:00 15,5 14,1 15,6 16,4 16,8 16,5 45 24 61 33 SW 1008,7 18 0 0,1
04.07.2020 10:00:00 14,9 14,3 14,9 16,3 16,8 16,5 44 24 61 33 SSW 1009,1 3,0 0 0,3
04.07.2020 09:00:00 15,3 14,6 15,2 16,1 16,8 16,6 45 25 66 35 SW 1009,1 2,9 0 0,2
04.07.2020 08:00:00 15,4 14,8 15,2 15,8 16,9 16,6 45 25 64 34 SW 1009,2 2,5 0 0,4
04.07.2020 07:00:00 15,6 14,6 15,2 15,6 17,0 16,6 48 26 65 35 WSW 1009,1 13 0 0,3
04.07.2020 06:00:00 15,2 14,5 14,9 15,5 17,1 16,6 49 26 64 35 WSW 1009,3 8 0 0,8
04.07.2020 05:00:00 15,2 14,2 14,6 15,4 17,3 16,6 44 24 65 35 SW 1009,7 2,8 0 0,3
04.07.2020 04:00:00 16,4 12,5 15,9 15,8 17,4 16,6 46 25 61 33 SW 1009,8 23 0 0,0
04.07.2020 03:00:00 16,8 12,8 16,6 15,9 17,6 16,6 42 23 62 34 SW 1010,1 25 0 0,0
04.07.2020 02:00:00 16,9 12,8 16,6 15,9 17,8 16,6 41 22 60 33 SW 1010,5 26 0 0,0
04.07.2020 01:00:00 17,1 12,9 16,8 16,1 18,0 16,6 41 22 58 31 SW 1011,2 23 0 0,0
04.07.2020 00:00:00 16,8 12,5 16,5 16,1 18,2 16,6 39 21 54 29 SW 1011,7 25 0 0,0
03.07.2020 23:00:00 16,3 12,9 15,3 16,1 18,5 16,6 42 23 60 32 WSW 1012,3 25 0 0,3
03.07.2020 22:00:00 16,4 12,8 16,4 16,8 18,8 16,6 40 22 56 31 WSW 1012,4 20 0 0,0
03.07.2020 21:00:00 15,9 12,7 15,7 16,9 19,2 16,6 40 21 61 33 WSW 1012,7 25 0 0,0
03.07.2020 20:00:00 16,6 11,5 16,7 18,1 19,5 16,6 53 29 67 36 W 1012,5 29 0 0,0
03.07.2020 19:00:00 17,6 13,0 17,7 19,1 19,7 16,6 39 21 55 30 WSW 1012,4 37 0 0,0
03.07.2020 18:00:00 16,4 14,5 17,2 19,1 19,9 16,6 23 12 42 23 WSW 1012,9 33 0 0,0
03.07.2020 17:00:00 17,1 13,7 18,1 20,2 20,1 16,6 26 14 40 22 WSW 1013,1 42 0 0,2
03.07.2020 16:00:00 16,6 13,3 16,3 21,7 20,1 16,6 31 17 45 24 WSW 1013,6 18 0 0,0
03.07.2020 15:00:00 17,1 12,3 18,7 23,9 19,7 16,6 29 16 43 23 WSW 1013,7 50 0 0,0
03.07.2020 14:00:00 17,7 11,7 20,4 25,4 19,1 16,6 31 17 39 21 WSW 1013,9 51 9 0,0
03.07.2020 13:00:00 17,3 12,3 19,9 23,6 18,6 16,6 30 16 47 26 W 1013,8 53 23 0,0
03.07.2020 12:00:00 16,5 12,5 17,4 20,3 18,2 16,6 28 15 37 20 SW 1013,6 44 5 0,0
03.07.2020 11:00:00 17,5 11,3 20,3 22,2 17,7 16,6 20 11 29 16 SW 1013,4 75 37 0,0
03.07.2020 10:00:00 16,3 11,3 17,9 18,4 17,6 16,6 18 10 25 13 SW 1013,6 55 0 0,0
03.07.2020 09:00:00 14,8 12,7 15,8 16,8 17,6 16,6 5 3 12 6 SE 1013,5 46 0 0,0
03.07.2020 08:00:00 14,3 12,1 14,6 16,4 17,7 16,6 6 3 13 7 SE 1013,3 56 0 0,0
03.07.2020 07:00:00 14,0 11,7 13,5 15,7 17,8 16,6 7 4 11 6 ENE 1013,1 34 0 0,0
03.07.2020 06:00:00 13,6 11,5 13,6 15,5 18,1 16,6 5 3 9 5 ESE 1012,8 54 0 0,0
03.07.2020 05:00:00 13,6 11,4 13,1 15,5 18,4 16,6 6 4 14 8 E 1012,6 48 0 0,0
03.07.2020 04:00:00 13,5 11,2 12,9 15,8 18,7 16,6 5 3 8 4 S 1012,4 60 0 0,0
03.07.2020 03:00:00 13,1 11,2 12,7 16,0 19,1 16,6 2 1 11 6 NNW 1012,5 58 0 0,0
03.07.2020 02:00:00 12,8 10,1 12,1 16,0 19,5 16,6 13 7 24 13 N 1012,2 58 0 0,2
03.07.2020 01:00:00 13,7 10,6 14,0 17,1 20,0 16,6 5 3 7 4 SSE 1011,9 67 0 0,0
03.07.2020 00:00:00 13,5 11,0 13,8 17,3 20,5 16,6 5 3 29 16 NE 1011,6 62 0 0,0
02.07.2020 23:00:00 14,2 10,5 14,4 18,4 21,0 16,6 16 8 26 14 N 1011,5 19 0 0,0
02.07.2020 22:00:00 14,6 11,1 14,9 19,3 21,6 16,6 18 10 36 20 N 1010,9 48 0 0,0
02.07.2020 21:00:00 16,1 10,2 16,6 21,0 22,0 16,6 13 7 21 11 N 1010,5 66 0 0,0
02.07.2020 20:00:00 16,7 10,5 18,1 22,8 22,4 16,6 8 4 17 9 N 1010,1 59 2 0,0
02.07.2020 19:00:00 16,8 11,3 18,7 23,8 22,7 16,6 10 5 21 11 N 1009,7 52 6 0,0
02.07.2020 18:00:00 16,9 11,5 19,1 24,0 23,1 16,6 14 8 20 11 NW 1009,6 52 1 0,1
02.07.2020 17:00:00 16,2 12,0 15,9 25,8 23,2 16,6 13 7 18 10 WNW 1009,7 21 0 0,0
02.07.2020 16:00:00 17,3 11,4 21,3 31,4 22,6 16,6 11 6 18 10 NW 1009,4 62 34 0,0
02.07.2020 15:00:00 18,5 10,8 25,1 34,0 21,5 16,6 11 6 21 11 WNW 1009,3 39 57 0,0
02.07.2020 14:00:00 18,3 11,4 24,4 32,7 20,2 16,6 13 7 21 12 W 1009,2 61 60 0,0
02.07.2020 13:00:00 17,5 10,9 22,8 29,6 19,2 16,6 14 8 27 14 W 1009,0 65 50 0,0
02.07.2020 12:00:00 17,9 11,6 22,0 26,9 18,3 16,6 20 11 26 14 WSW 1008,7 39 54 0,0
02.07.2020 11:00:00 17,3 11,3 20,2 23,6 17,7 16,7 17 9 27 14 W 1008,2 75 44 0,0
02.07.2020 10:00:00 17,0 11,7 19,3 19,7 17,3 16,7 17 9 31 17 W 1007,7 41 12 0,0
02.07.2020 09:00:00 16,4 12,4 17,9 18,1 17,2 16,6 24 13 31 17 WNW 1007,3 47 7 0,0
02.07.2020 08:00:00 16,6 11,9 17,6 17,0 17,1 16,6 22 12 27 15 W 1006,9 68 31 0,0
02.07.2020 07:00:00 15,4 10,8 15,3 15,1 17,2 16,6 23 12 32 18 W 1006,5 58 10 0,0
02.07.2020 06:00:00 15,5 11,7 15,2 14,7 17,5 16,6 24 13 33 18 W 1006,1 47 0 0,0
02.07.2020 05:00:00 15,3 11,8 14,6 14,6 17,8 16,6 23 12 34 18 W 1005,8 48 0 0,0
02.07.2020 04:00:00 15,2 11,8 14,5 15,0 18,2 16,6 25 13 36 19 W 1005,5 48 0 0,0
02.07.2020 03:00:00 15,4 12,0 14,9 15,6 18,5 16,6 26 14 43 23 WNW 1005,4 41 0 0,0
02.07.2020 02:00:00 16,1 13,2 16,0 16,2 18,9 16,6 33 18 42 23 W 1005,1 33 0 0,0
02.07.2020 01:00:00 16,2 14,1 15,7 16,5 19,3 16,6 32 17 48 26 W 1004,6 31 0 0,0
02.07.2020 00:00:00 16,4 13,3 16,0 16,6 19,7 16,7 41 22 51 28 WSW 1004,5 38 0 0,0
01.07.2020 23:00:00 16,4 13,3 16,1 17,3 20,3 16,7 34 19 47 26 W 1004,2 34 0 0,0
01.07.2020 22:00:00 16,7 13,8 16,7 18,2 20,8 16,7 37 20 47 26 W 1003,8 36 0 0,0
01.07.2020 21:00:00 16,7 13,7 16,9 19,4 21,4 16,7 37 20 48 26 W 1003,5 32 2 0,0
01.07.2020 20:00:00 17,5 14,3 18,2 22,0 21,8 16,7 36 19 45 24 W 1003,4 32 36 0,0
01.07.2020 19:00:00 18,0 14,5 19,0 22,8 22,1 16,7 33 18 43 23 W 1003,1 35 13 0,0
01.07.2020 18:00:00 18,8 14,4 20,0 24,7 22,2 16,7 31 17 43 23 W 1002,7 41 46 0,0
01.07.2020 17:00:00 20,3 16,5 22,5 27,5 21,9 16,8 25 14 35 19 WSW 1002,6 23 26 0,9
01.07.2020 16:00:00 20,1 14,9 22,3 30,3 21,2 16,8 22 12 35 19 S 1002,8 24 52 0,0
01.07.2020 15:00:00 20,7 14,3 24,6 29,6 20,4 16,8 23 12 39 21 S 1003,3 39 49 0,0
01.07.2020 14:00:00 19,6 13,5 21,8 27,8 19,6 16,8 23 13 35 19 S 1003,7 58 53 0,0
01.07.2020 13:00:00 18,9 13,2 21,2 26,0 18,8 16,9 22 12 31 17 SSW 1004,2 41 39 0,0
01.07.2020 12:00:00 17,9 12,5 21,3 25,8 17,8 16,9 22 12 31 17 SSW 1004,2 38 58 0,0
01.07.2020 11:00:00 17,2 13,4 19,6 22,7 17,1 16,9 19 11 29 16 SSW 1004,1 32 45 0,0
01.07.2020 10:00:00 17,3 13,6 19,2 21,1 16,5 16,9 24 13 33 18 SW 1004,3 36 38 0,0
01.07.2020 09:00:00 17,8 12,3 20,2 19,0 16,0 16,9 24 13 30 16 WSW 1004,2 52 60 0,0
01.07.2020 08:00:00 16,5 11,8 17,7 16,0 15,9 17,0 22 12 35 19 WSW 1003,9 44 34 0,0
01.07.2020 07:00:00 15,6 11,8 15,6 14,5 15,9 17,0 27 15 36 20 W 1003,8 31 13 0,0
01.07.2020 06:00:00 15,3 11,5 14,9 14,1 16,0 17,0 29 16 40 22 W 1003,7 32 0 0,0
01.07.2020 05:00:00 15,3 11,4 14,9 13,9 16,2 17,0 31 17 43 23 W 1003,7 39 0 0,0
01.07.2020 04:00:00 15,2 11,7 14,7 13,7 16,4 17,0 31 17 43 23 W 1003,7 37 0 0,0
01.07.2020 03:00:00 15,2 11,6 14,2 13,8 16,7 17,0 34 18 45 24 W 1003,5 38 0 0,0
01.07.2020 02:00:00 15,3 11,1 14,7 14,1 16,9 17,1 34 18 44 24 W 1003,7 41 0 0,0
01.07.2020 01:00:00 15,2 11,7 14,7 14,4 17,2 17,1 31 17 43 23 W 1003,9 35 0 0,0
01.07.2020 00:00:00 15,6 12,1 15,2 14,8 17,5 17,1 34 18 46 25 W 1004,0 32 0 0,0
30.06.2020 23:00:00 15,6 11,9 15,2 15,4 17,8 17,1 34 19 46 25 W 1004,1 28 0 0,0
30.06.2020 22:00:00 15,6 12,0 15,5 15,6 18,1 17,2 37 20 53 29 W 1004,2 24 0 0,0
30.06.2020 21:00:00 15,7 11,6 15,7 16,2 18,4 17,2 46 25 57 31 W 1004,2 28 0 0,0
30.06.2020 20:00:00 15,8 11,8 15,9 16,9 18,7 17,2 49 27 65 35 W 1004,2 23 0 0,0
30.06.2020 19:00:00 16,0 12,4 16,3 18,0 18,9 17,2 50 27 66 36 WSW 1004,2 20 0 0,0
30.06.2020 18:00:00 16,5 12,6 17,4 19,6 18,9 17,2 55 30 69 37 WSW 1004,3 23 1 0,0
30.06.2020 17:00:00 16,9 12,6 18,3 21,4 18,7 17,3 55 30 68 37 WSW 1004,2 25 26 0,0
30.06.2020 16:00:00 17,2 12,7 19,0 21,4 18,3 17,3 48 26 66 35 WSW 1004,0 24 19 0,0
30.06.2020 15:00:00 16,6 12,5 18,2 20,0 18,1 17,3 48 26 68 37 WSW 1003,9 30 12 0,0
30.06.2020 14:00:00 16,0 12,7 16,4 19,1 17,9 17,3 50 27 74 40 WSW 1003,8 20 4 0,6
30.06.2020 13:00:00 15,8 14,0 15,5 19,9 17,5 17,3 48 26 64 34 WSW 1003,7 4,1 22 0,0
30.06.2020 12:00:00 16,0 13,5 17,3 19,3 17,2 17,4 45 25 66 36 SW 1003,5 24 13 0,0
30.06.2020 11:00:00 15,2 13,5 15,8 16,8 17,2 17,4 45 25 80 43 SW 1003,2 24 1 3,4
30.06.2020 10:00:00 16,0 13,0 15,9 16,8 17,1 17,4 48 26 64 35 WSW 1003,1 21 9 0,0
30.06.2020 09:00:00 15,4 12,9 15,4 16,1 17,1 17,4 44 24 67 36 W 1003,1 24 9 0,1
30.06.2020 08:00:00 15,4 13,0 15,2 15,7 17,1 17,4 41 22 59 32 W 1002,9 13 10 0,0
30.06.2020 07:00:00 15,3 11,8 15,1 15,0 17,3 17,4 37 20 55 30 WSW 1002,9 26 2 0,1
30.06.2020 06:00:00 14,9 12,1 14,0 14,5 17,5 17,4 41 22 56 30 WSW 1002,9 24 0 0,1
30.06.2020 05:00:00 15,0 12,2 14,6 14,6 17,7 17,4 46 25 56 31 WSW 1003,1 25 0 0,0
30.06.2020 04:00:00 14,6 12,9 13,8 14,6 18,1 17,5 41 22 59 32 WSW 1003,5 22 0 0,8
30.06.2020 03:00:00 14,1 12,6 13,4 14,5 18,6 17,5 39 21 57 31 SW 1004,1 17 0 4,2
30.06.2020 02:00:00 13,4 12,7 13,1 14,7 19,0 17,5 41 22 78 42 WSW 1004,8 2,3 0 3,0
30.06.2020 01:00:00 14,4 11,9 13,5 15,3 19,5 17,5 41 22 71 38 SW 1005,3 19 0 0,2
30.06.2020 00:00:00 16,0 10,3 15,1 16,0 20,0 17,5 48 26 66 36 SW 1005,6 26 0 0,0
29.06.2020 23:00:00 16,3 10,1 16,2 16,8 20,5 17,5 42 23 60 33 SW 1005,9 28 0 0,0
29.06.2020 22:00:00 16,1 11,5 15,7 17,3 21,0 17,5 44 24 59 32 SW 1006,3 24 0 0,0
29.06.2020 21:00:00 16,2 10,8 16,1 18,7 21,6 17,6 42 23 56 30 SW 1006,9 24 0 0,0
29.06.2020 20:00:00 16,3 10,9 16,5 19,4 22,2 17,6 40 22 57 31 SW 1007,3 28 0 0,0
29.06.2020 19:00:00 15,4 12,4 14,7 20,5 22,7 17,6 44 24 64 35 WSW 1007,8 8 0 0,0
29.06.2020 18:00:00 17,3 10,3 17,7 22,9 23,1 17,6 30 16 51 27 WSW 1007,8 34 0 0,0
29.06.2020 17:00:00 18,6 10,1 20,4 26,5 23,0 17,7 35 19 49 27 SW 1007,8 29 5 0,0
29.06.2020 16:00:00 18,1 9,3 20,1 29,8 22,6 17,7 36 19 46 25 WSW 1008,5 40 29 0,0
29.06.2020 15:00:00 19,9 9,5 23,8 30,5 21,9 17,7 29 16 49 26 SW 1008,6 27 45 0,0

tt = temperature
td = dewpoint
tt 5cm = temperature 5cm
tt -5cm = temperature -5cm
tt -20cm = temperature -20cm
tt -100cm = temperature -100cm
ff = wind speed
fx = gusts
dd = wind direction
ppp = reduced air pressure
vv = visibility
sd = sunshine duration
rr = precipitation

Next stations